カタログに戻る

STARLINK-31534

運用中通信VLEO
NORAD 59398·PAYLOAD·🇺🇸 United States

打ち上げ Apr 5, 2024 から Cape Canaveral Space Force Station

Loading…

次のパス (今後24時間)

TLE

最新Source: CelesTrak SupGP

元期: Sep 14, 2026, 21:09 UTC

1 59398C 24064A   26257.88173611  .00041369  00000+0  14984-2 0  2574
2 59398  43.0029  67.3472 0001591 273.2736 119.6811 15.27557735    14

AllMySatでSTARLINK-31534をリアルタイム追跡

Download on the App Store